Location: Brabourne
(51.1333°N, 1.0000°E)
Time: 12:27:23
(UTC+00:00)

ADEOS Rocket - Pass Details

Date: 30 October 2021
Orbit: 858 x 1307 km, 98.8° (Epoch: 26 November)

Event Time Altitude Azimuth Distance (km) Brightness Sun altitude
Exits shadow 23:34:23 12° 4° (N) 2,821 5.8 -53.0°
Drops below altitude 10° 23:35:00 10° 1° (N) 2,993 6.0 -53.0°
Sets 23:37:48 0° 350° (N) 3,884 6.7 -53.0°
